This is the latest recevied weather packets stored in our database for station/object CT2IRJ-11. If no packets are shown the sender has not sent any weather packets the latest 10 day(s).
| Time | Temp. | Humidity | Pressure | Rain* | Wind** | Luminosity | Snow |
|---|---|---|---|---|---|---|---|
| 1777625310 | 17.78° C | 71% | 1019 hPa | 0 mm | - | 376 W/m² | - |
| 1777625011 | 17.78° C | 74% | 1019.3 hPa | 0 mm | - | 322 W/m² | - |
| 1777624709 | 17.22° C | 76% | 1019.6 hPa | 0 mm | - | 286 W/m² | - |
| 1777624410 | 17.78° C | 76% | 1019.3 hPa | 0 mm | - | 280 W/m² | - |
| 1777624110 | 17.22° C | 77% | 1019.3 hPa | 0 mm | - | 252 W/m² | - |
| 1777623809 | 16.67° C | 80% | 1019.3 hPa | 0 mm | - | 270 W/m² | - |
| 1777623509 | 16.11° C | 79% | 1019.3 hPa | 0 mm | - | 256 W/m² | - |
| 1777623210 | 16.67° C | 80% | 1019.3 hPa | 0 mm | - | 212 W/m² | - |
| 1777622909 | 16.11° C | 83% | 1019 hPa | 0 mm | - | 195 W/m² | - |
| 1777622609 | 15.56° C | 85% | 1019 hPa | 0 mm | - | 183 W/m² | - |
| 1777622310 | 15° C | 88% | 1018.6 hPa | 0 mm | - | 164 W/m² | - |
| 1777622009 | 14.44° C | 89% | 1018.6 hPa | 0 mm | - | 185 W/m² | - |
| 1777621709 | 13.89° C | 90% | 1019 hPa | 0 mm | - | 170 W/m² | - |
| 1777621410 | 14.44° C | 91% | 1019 hPa | 0 mm | - | 140 W/m² | - |
| 1777621110 | 14.44° C | 91% | 1019 hPa | 0 mm | - | 163 W/m² | - |
| 1777620811 | 13.33° C | 92% | 1019 hPa | 0 mm | - | 535 W/m² | - |
| 1777620510 | 12.78° C | 92% | 1019 hPa | 0 mm | - | 163 W/m² | - |
| 1777620209 | 12.78° C | 93% | 1019 hPa | 0 mm | - | 141 W/m² | - |
| 1777619910 | 12.22° C | 93% | 1019.3 hPa | 0 mm | - | 90 W/m² | - |
| 1777619609 | 12.22° C | 93% | 1019 hPa | 0 mm | - | 85 W/m² | - |
| 1777619311 | 11.67° C | 93% | 1019 hPa | 0 mm | - | 83 W/m² | - |
| 1777619009 | 11.67° C | 93% | 1018.6 hPa | 0 mm | - | 64 W/m² | - |
| 1777618709 | 11.67° C | 93% | 1018.6 hPa | 0 mm | - | 56 W/m² | - |
| 1777618410 | 12.22° C | 93% | 1018.6 hPa | 0 mm | - | 59 W/m² | - |
| 1777618110 | 12.78° C | 94% | 1018.6 hPa | 0 mm | - | 55 W/m² | - |
* Rain latest hour (hover to see other rain measurements)
** Current wind speed in m/s (hover to see current wind gust speed)